Skip Page Navigation
NASA JPL Caltech
NASA Logo - Jet Propulsion Laboratory + View the NASA Portal
+ Center for Near-Earth Object Studies
JPL Home Earth Solar System Stars & Galaxies Technology
JPL Solar System Dynamics
BODIES ORBITS EPHEMERIDES TOOLS PHYSICAL DATA DISCOVERY FAQ SITE MAP

Significant website upgrade scheduled for September 27. More details available here.

JPL Small-Body Database Browser
Search: [ help ]  
79214 (1994 GS6)
Classification: Main-belt Asteroid          SPK-ID: 2079214
Ephemeris | Orbit Diagram | Orbital Elements | Mission Design | Physical Parameters | Discovery Circumstances ]

[ show orbit diagram ]
Orbital Elements at Epoch 2459396.5 (2021-Jul-01.0) TDB
Reference: JPL 23 (heliocentric ecliptic J2000)
 Element Value Uncertainty (1-sigma)   Units 
e .0343233044379392 4.3152e-08  
a 2.28083316018097 9.9682e-09 au
q 2.202547429251931 9.9591e-08 au
i 4.788381357726679 4.6656e-06 deg
node 205.834610377189 5.7196e-05 deg
peri 273.479371031778 9.0823e-05 deg
M 41.41597194794455 7.1819e-05 deg
tp 2459251.754836387972
(2021-Feb-06.25483639)
0.00025093 TDB
period 1258.168200563413
3.44
8.2481e-06
2.258e-08
d
yr
n .2861302644899072 1.8758e-09 deg/d
Q 2.359118891110008 1.031e-08 au
  Orbit Determination Parameters
   # obs. used (total)      441  
   data-arc span      9858 days (26.99 yr)  
   first obs. used      1994-04-11  
   last obs. used      2021-04-07  
   planetary ephem.      DE441  
   SB-pert. ephem.      SB441-N16  
   condition code      0  
   norm. resid. RMS      .4966  
   source      ORB  
   producer      Otto Matic  
   solution date      2021-Jul-08 23:08:04  

Additional Information
 Earth MOID = 1.22497 au 
 Jupiter MOID = 2.64872 au 
 T_jup = 3.600 
[ show covariance matrix ]

Ephemeris | Orbit Diagram | Orbital Elements | Mission Design | Physical Parameters | Discovery Circumstances ]

Physical Parameter Table
Parameter Symbol Value Units Sigma Reference Notes
absolute magnitude H 16.99   n/a MPCxxxxx  
rotation period rot_per 1.9 h n/a LCDB (Rev. 2020-October); Warner et al., 2009 lower-limit; Incomplete or inconclusive result.
Published Reference List:
[Erasmus, N.; McNeill, A.; Mommert, M.; Trilling, D.E.; et al. (2018) Ap. J. Suppl. Series 237, A19.]
[Erasmus, N.; McNeill, A.; Mommert, N.; Trilling, D.E.; et al. (2019) Ap. J. Suppl. Series 242, A15.]

79214 (1994 GS6)          Discovered 1994-Apr-11 by Spacewatch at Kitt Peak
Reference: 20040504/Numbers.arcLast Updated: 2004-07-16

Alternate Designations
 1994 GS6 = 2001 HG39 
Ephemeris | Orbit Diagram | Orbital Elements | Mission Design | Physical Parameters | Discovery Circumstances ]
ABOUT SSD CREDITS/AWARDS PRIVACY/COPYRIGHT GLOSSARY LINKS
FirstGov 2021-Sep-18 08:39 UT
(server date/time)  
NASA Home Page
Site Manager:   Ryan S. Park
Webmaster  Alan B. Chamberlin